Flag for U.S.A. Weather past 2 weeks in Bloomington, Illinois, U.S.A.

Now
25 °F

Sunny.


Feels Like: 19 °F
Forecast: 11 / 29 °F
Wind: 5 mph from North

Location: Bloomington / Normal

Current Time: Mar 2, 2015 at 11:10:49 AM

Latest Report: Mar 2, 2015 at 9:56 AM


Visibility: 10 mi

Pressure: 30.59 "Hg

Humidity: 65%

Dew point: 15 °F

Location of BloomingtonLocation

Historic Weather in Bloomington — Graph

°F

Bloomington temperature yesterday

Maximum temperature yesterday: 27 °F (at 1:56 PM)
Minimum temperature yesterday: 18 °F (at 11:56 PM)
Average temperature yesterday: 23 °F

Past Weeks' High & Low Weather Summary

 TemperatureHumidityPressure
High36 °F (Feb 21, 1:56 PM)96% (Feb 21, 4:56 AM)30.84 "Hg (Feb 21, 4:56 AM)
Low-7 °F (Feb 27, 6:56 AM)32% (Feb 23, 3:56 PM)29.87 "Hg (Feb 24, 2:56 PM)
Average15 °F69%30.33 "Hg
* Reported Feb 15 9:56 AM — Mar 2 9:56 AM, Bloomington, Weather by CustomWeather, © 2015

Note: Actual official high and low records may vary slightly from our data, if they occured in-between our weather recording intervals... More about our weather records

Advertising

Bloomington weather history for previous 24 hours

 ConditionsComfort  
Time TempWeatherWind HumidityBarometerVisibility
9:56 AM
Mon, Mar 2
25 °FSunny.5 mph65%30.59 "Hg10 mi
8:56 AM22 °FSunny.8 mph74%30.60 "Hg10 mi
7:56 AM13 °FSunny.5 mph87%30.60 "Hg7 mi
6:56 AM15 °FSunny.6 mph84%30.58 "Hg10 mi
5:56 AM16 °FClear.7 mph83%30.57 "Hg10 mi
4:56 AM16 °FClear.7 mph80%30.55 "Hg10 mi
3:56 AM18 °FClear.8 mph84%30.54 "Hg10 mi
2:56 AM19 °FClear.9 mph81%30.53 "Hg10 mi
1:56 AM20 °FClear.9 mph77%30.54 "Hg10 mi
12:56 AM19 °FClear.8 mph81%30.52 "Hg10 mi
11:56 PM
Sun, Mar 1
18 °FClear.9 mph84%30.50 "Hg9 mi
10:56 PM20 °FClear.12 mph85%30.50 "Hg10 mi
9:56 PM22 °FClear.12 mph81%30.49 "Hg10 mi
8:56 PM22 °FClear.13 mph81%30.46 "Hg10 mi
7:56 PM22 °FClear.9 mph81%30.45 "Hg10 mi
6:56 PM23 °FOvercast.8 mph85%30.42 "Hg10 mi
5:56 PM24 °FPassing clouds.12 mph81%30.40 "Hg10 mi
4:56 PM26 °FOvercast.9 mph81%30.38 "Hg9 mi
3:56 PM26 °FPartly sunny.7 mph81%30.38 "Hg10 mi
2:56 PM27 °FScattered clouds.7 mph78%30.39 "Hg10 mi
1:56 PM27 °FPartly sunny.6 mph78%30.39 "Hg10 mi
12:56 PM26 °FPartly sunny.5 mph81%30.41 "Hg10 mi
11:56 AM26 °FPartly sunny.6 mph78%30.43 "Hg10 mi
Weather by CustomWeather, © 2015

See weather overviewHow to use our weather pages